This demonstration page uses our WeatherBlox Daily Observations layout. Learn more.

Left ArrowRight Arrow

Hourly Observations for August 4, 2020

Temp ( °F °C ) Dew Point ( °F °C ) Humidity (%) Winds ( mph kmh ) Pressure ( in mb ) Visibility ( mi km ) Precip ( " mm )
12:10 am 00:10 Partly Cloudy with Mist and Fog 63 17.2 63 17.2 100 100 N N/A 29.97 1015 1.75 2.816345 N/A
12:14 am 00:14 Partly Cloudy with Mist and Fog 64 17.8 63 17.2 96 96 N N/A 29.97 1015 3 4.82802 N/A
12:53 am 00:53 Mostly Clear with Mist and Fog 63 17.2 62 16.7 97 97 N N/A 29.95 1014 4 6.43736 N/A
1:00 am 01:00 Mostly Clear with Mist and Fog 63 17.2 63 17.2 100 100 N N/A 29.95 1014 2.5 4.02335 N/A
1:07 am 01:07 Partly Cloudy with Mist and Fog 63 17.2 62 16.7 97 97 N N/A 29.95 1014 1.5 2.41401 N/A
1:14 am 01:14 Mostly Cloudy with Mist and Fog 63 17.2 62 16.7 97 97 N N/A 29.95 1014 0.75 1.207005 N/A
1:22 am 01:22 Partly Cloudy with Mist and Fog 63 17.2 62 16.7 97 97 W 3 6 29.95 1014 1.25 2.011675 N/A
1:26 am 01:26 Partly Cloudy with Mist and Fog 63 17.2 62 16.7 97 97 N N/A 29.95 1014 3 4.82802 N/A
1:48 am 01:48 Mostly Cloudy with Mist and Fog 63 17 63 17 100 100 N N/A 29.95 1014 2.5 4.02335 N/A
1:51 am 01:51 Mostly Cloudy with Mist and Fog 63 17 63 17 100 100 N N/A 29.95 1014 1.5 2.41401 N/A
1:53 am 01:53 Mostly Cloudy with Mist and Fog 63 17.2 63 17.2 100 100 N N/A 29.94 1014 1 1.60934 N/A
2:00 am 02:00 Mostly Cloudy with Fog 65 18.3 64 17.8 97 97 WNW 3 6 29.95 1014 0.25 0.402335 N/A
2:53 am 02:53 Mostly Cloudy with Fog 64 17.8 64 17.8 100 100 N N/A 29.93 1013 0.5 0.80467 N/A
3:51 am 03:51 Cloudy with Mist and Fog 63 17 63 17 100 100 N N/A 29.92 1013 2 3.21868 N/A
3:53 am 03:53 Cloudy with Mist and Fog 63 17.2 63 17.2 100 100 N N/A 29.91 1013 3 4.82802 N/A
4:53 am 04:53 Cloudy with Mist and Fog 63 17.2 62 16.7 97 97 N N/A 29.91 1013 6 9.65604 N/A
5:15 am 05:15 Cloudy with Mist and Fog 63 17.2 63 17.2 100 100 WSW 3 6 29.92 1013 1.75 2.816345 N/A
5:23 am 05:23 Cloudy with Mist and Fog 63 17.2 63 17.2 100 100 WSW 5 7 29.92 1013 1 1.60934 N/A
5:41 am 05:41 Mostly Cloudy with Mist and Fog 64 17.8 63 17.2 96 96 VRB 3 6 29.93 1014 0.75 1.207005 N/A
5:53 am 05:53 Mostly Cloudy with Mist and Fog 64 17.8 64 17.8 100 100 N N/A 29.94 1014 1 1.60934 N/A
6:02 am 06:02 Cloudy with Mist and Fog 64 17.8 64 17.8 100 100 W 3 6 29.94 1014 2 3.21868 N/A
6:11 am 06:11 Cloudy with Mist and Fog 64 17.8 64 17.8 100 100 W 3 6 29.94 1014 5 8.0467 N/A
6:40 am 06:40 Cloudy with Mist and Fog 64 17.8 63 17.2 96 96 N N/A 29.95 1014 6 9.65604 N/A
6:53 am 06:53 Cloudy with Mist and Fog 64 17.8 63 17.2 96 96 WSW 3 6 29.95 1014 5 8.0467 N/A
7:05 am 07:05 Mostly Cloudy with Mist and Fog 64 17.8 63 17.2 96 96 N N/A 29.94 1014 5 8.0467 N/A
7:14 am 07:14 Mostly Cloudy with Mist and Fog 64 17.8 63 17.2 96 96 N N/A 29.95 1014 5 8.0467 N/A
7:53 am 07:53 Sunny 65 18.3 65 18.3 100 100 N N/A 29.95 1014 7 11.26538 N/A
8:07 am 08:07 Mostly Sunny 66 18.9 65 18.3 96 96 N N/A 29.95 1014 9 14.48406 N/A
8:53 am 08:53 Mostly Sunny 67 19.4 64 17.8 91 91 NW 3 6 29.95 1014 10 16.0934 N/A
9:13 am 09:13 Mostly Cloudy 68 20 64 17.8 87 87 NW 6 9 29.96 1014 10 16.0934 N/A
9:45 am 09:45 Cloudy 67 19.4 64 17.8 91 91 NW 7 11 29.97 1015 10 16.0934 N/A
9:53 am 09:53 Cloudy 67 19.4 64 17.8 91 91 NW 7 11 29.97 1015 10 16.0934 N/A
10:42 am 10:42 Cloudy 70 21.1 64 17.8 82 82 NW 9 15 29.97 1015 10 16.0934 N/A
10:53 am 10:53 Cloudy 69 20.6 64 17.8 84 84 NW 9 15 29.98 1015 10 16.0934 N/A
11:53 am 11:53 Cloudy 71 21.7 64 17.8 79 79 N 7 11 29.98 1015 10 16.0934 N/A
12:02 pm 12:02 Cloudy 72 22.2 64 17.8 76 76 WNW 6 9 29.98 1015 10 16.0934 N/A
12:53 pm 12:53 Mostly Cloudy 73 22.8 63 17.2 71 71 NW 5 7 29.98 1015 10 16.0934 N/A
1:09 pm 13:09 Cloudy 73 22.8 64 17.8 74 74 VRB 5 7 29.98 1015 10 16.0934 N/A
1:53 pm 13:53 Mostly Cloudy 76 24.4 64 17.8 67 67 W 9 15 29.98 1015 10 16.0934 N/A
2:53 pm 14:53 Mostly Cloudy 76 24.4 63 17.2 64 64 VRB 5 7 29.98 1015 10 16.0934 N/A
3:53 pm 15:53 Mostly Cloudy 77 25 63 17.2 62 62 SW 7 11 29.98 1015 10 16.0934 N/A
4:53 pm 16:53 Mostly Cloudy 78 25.6 61 16.1 56 56 WNW 10 17 29.98 1015 10 16.0934 N/A
5:53 pm 17:53 Mostly Cloudy 75 23.9 59 15 58 58 WNW 9 15 29.99 1016 10 16.0934 N/A
6:53 pm 18:53 Partly Cloudy 76 24.4 60 15.6 58 58 WNW 8 13 29.98 1015 10 16.0934 N/A
7:53 pm 19:53 Sunny 73 22.8 58 14.4 59 59 NNW 10 17 30 1016 10 16.0934 N/A
8:53 pm 20:53 Clear 68 20 58 14.4 70 70 NNW 5 7 30.01 1016 10 16.0934 N/A
9:53 pm 21:53 Clear 63 17.2 59 15 87 87 N N/A 30.04 1017 10 16.0934 N/A
10:53 pm 22:53 Clear 63 17.2 58 14.4 84 84 NNW 3 6 30.06 1018 10 16.0934 N/A
11:53 pm 23:53 Clear 60 15.6 57 13.9 90 90 N 3 6 30.07 1018 10 16.0934 N/A

Powered by AerisWeather